Location: Aldenham
(51.6667°N, 0.3500°W)
Time: 00:04:08
(UTC+00:00)

Vanguard 2 - Pass Details

Date: 26 February 2026
Orbit: 553 x 2896 km, 32.9° (Epoch: 7 March)

Event Time Altitude Azimuth Distance (km) Brightness Sun altitude
Exits shadow 05:58:05 - 238° (WSW) 3,714 10.5 -9.3°
Reaches altitude 10° 06:01:48 10° 216° (SW) 2,760 10.1 -8.7°
Maximum altitude 06:03:44 11° 198° (SSW) 2,469 10.0 -8.4°
Drops below altitude 10° 06:05:29 10° 180° (S) 2,408 10.1 -8.2°
Sets 06:09:26 0° 145° (SE) 3,007 11.2 -7.6°
